[[{"header":{"parameterUnit":"m.s-1","parameterCategory":1,"la1":30.2991,"la2":30.254,"lo1":-89.0895,"lo2":-89.0444,"dy":0.0017,"dx":0.0017,"nx":28,"ny":28,"refTime":"2024-07-06T09:00:00:Z","depth":0,"parameterNumber":2,"parameterNumberName":"U-component_of_WINDS"},"data":[0,0,0,0,0,0,0,0,0,0,0,0,0,0,0,0,0,0,0,0,0,0,0,0,0,0,0,0,0,0,0,0,0,0,0,0,0,0,0,0,0,0,0,0,0,0,0,0,0,0,0,0,0,0,0,0,0,0,0.3722,0.3724,0,0.391,0.3912,0.3914,0.4017,0.4018,0.4018,0.4018,0.4212,0.4217,0.4222,0,0,0,0,0,0,0,0,0,0,0,0,0,0.3452,0.3457,0.3722,0.3724,0.3726,0.3909,0.3912,0.3915,0.4017,0.4018,0.4018,0.4018,0.4211,0.4217,0.4223,0,0,0,0,0,0,0,0,0,0,0,0,0,0.3598,0.3458,0.3721,0.38,0.3809,0.3909,0.3912,0.3915,0.4017,0.4018,0.4018,0.4019,0.4209,0.4216,0.4223,0.4261,0,0,0.4246,0.4249,0,0,0,0,0,0,0,0,0.3589,0.3607,0.3786,0.3794,0.3805,0.3941,0.3888,0.4031,0.4017,0.3938,0.4018,0.4019,0.4122,0.4136,0.4171,0.427,0.4278,0.4247,0.4251,0.4254,0.4256,0,0,0,0,0,0,0,0.3579,0.36,0.3796,0.3788,0.38,0.3826,0.3847,0.3916,0.4025,0.3945,0.3953,0.3974,0.4127,0.4163,0.4176,0.4281,0.4246,0.4253,0.4257,0.426,0.442,0.4419,0,0,0,0,0,0,0.3556,0.3591,0.379,0.3802,0.3696,0.383,0.3854,0.3897,0.4025,0.4045,0.3973,0.3978,0.4151,0.4167,0.4183,0.4235,0.4254,0.4261,0.4265,0.442,0.442,0.4419,0,0,0,0,0,0,0.355,0.3573,0.3783,0.3699,0.3727,0.3834,0.3882,0.39,0.3937,0.4046,0.4066,0.399,0.4152,0.4173,0.424,0.4243,0.4264,0.4271,0.442,0.442,0.4419,0.4339,0,0,0,0,0,0,0.3542,0.357,0.3585,0.3698,0.3731,0.3836,0.3882,0.3903,0.3949,0.3957,0.4068,0.4086,0.4154,0.4229,0.4248,0.4254,0.4277,0.442,0.442,0.442,0.4342,0.4336,0.4331,0,0,0,0,0,0.3532,0.3555,0.3585,0.3609,0.3752,0.3836,0.3855,0.3931,0.3949,0.3965,0.4035,0.4083,0.424,0.4235,0.4257,0.4265,0.442,0.442,0.442,0.4344,0.4337,0.4331,0,0,0,0,0,0,0.3441,0.3572,0.3606,0.3667,0.3739,0.3853,0.3876,0.3921,0.3991,0.3995,0.4088,0.4112,0.4171,0.4225,0.4217,0.4308,0.4335,0.4339,0.427,0.4264,0.4259,0.4244,0.4283,0,0,0,0,0,0.3427,0.3484,0.3596,0.3639,0.3673,0.3768,0.3807,0.386,0.3939,0.397,0.4045,0.412,0.4187,0.4229,0.4296,0.435,0.4376,0.4367,0.4361,0.4356,0.4358,0.4391,0.4388,0.4418,0.4418,0.4418,0,0,0.3401,0.348,0.351,0.3622,0.3685,0.3741,0.3793,0.3851,0.3894,0.3979,0.4047,0.4105,0.4195,0.4255,0.4286,0.4303,0.4356,0.4355,0.4351,0.4356,0.439,0.4387,0.4384,0.4418,0.4418,0.4418,0,0,0.3382,0.3447,0.349,0.3551,0.3644,0.3707,0.3717,0.3824,0.3865,0.3935,0.4,0.4052,0.4165,0.4226,0.4272,0.4275,0.4321,0.4294,0.4266,0.4296,0.4293,0.4292,0.4292,0.4292,0.4296,0.4296,0.4296,0,0.3337,0.3425,0.3506,0.356,0.3607,0.3686,0.373,0.3786,0.3896,0.3927,0.3944,0.4086,0.4152,0.4228,0.4228,0.4263,0.4278,0.4282,0.4287,0.4286,0.4286,0.4288,0.4288,0.4292,0.4293,0.4293,0.4293,0,0.3366,0.3425,0.3449,0.3553,0.3603,0.3651,0.3739,0.378,0.3828,0.3889,0.3959,0.4041,0.4126,0.4148,0.4196,0.423,0.4237,0.4269,0.4299,0.4278,0.4281,0.4282,0.4286,0.4288,0.4289,0.429,0,0,0.3294,0.3442,0.3449,0.3497,0.3605,0.3653,0.3705,0.3788,0.3821,0.3894,0.394,0.4033,0.4063,0.4115,0.417,0.4197,0.4193,0.4226,0.423,0.4217,0.4236,0.4211,0.421,0.4225,0.4225,0.4226,0.4228,0,0.329,0.3387,0.3461,0.353,0.3586,0.3661,0.3707,0.3778,0.3836,0.3892,0.3957,0.4021,0.4056,0.4088,0.4118,0.4187,0.4198,0.4188,0.4268,0.427,0.4243,0.4212,0.4186,0.4184,0.423,0.423,0.4231,0,0.3299,0.3369,0.3442,0.3545,0.3571,0.361,0.3691,0.3744,0.3827,0.3867,0.3924,0.3982,0.404,0.4063,0.4145,0.4136,0.4174,0.4213,0.4215,0.4225,0.4249,0.4221,0.4186,0.4185,0.4233,0.4233,0.4233,0,0.3238,0.3351,0.341,0.3449,0.357,0.3595,0.3647,0.373,0.3774,0.3845,0.3875,0.3952,0.3994,0.4052,0.4129,0.4139,0.4202,0.4233,0.4238,0.4236,0.4248,0.4246,0.4217,0.4272,0.4272,0.4272,0.4272,0,0.3226,0.3268,0.3385,0.342,0.347,0.3554,0.3601,0.3659,0.3732,0.3781,0.3851,0.3895,0.3994,0.405,0.411,0.4168,0.4187,0.4222,0.4237,0.4215,0.421,0.424,0.4242,0.4272,0.4272,0.4272,0.4272,0,0.3167,0.3247,0.3316,0.3424,0.3452,0.3484,0.3577,0.3615,0.3676,0.3737,0.3756,0.3853,0.3923,0.4005,0.4102,0.4142,0.4195,0.4219,0.4167,0.4176,0.4176,0.4175,0.4166,0.4169,0.422,0.422,0.4219,0,0.3153,0.3188,0.3299,0.3337,0.3386,0.3445,0.3491,0.3576,0.362,0.3716,0.3742,0.3817,0.3882,0.399,0.4069,0.4143,0.4169,0.4161,0.418,0.4157,0.4168,0.4165,0.4168,0.4155,0.4154,0.4153,0.4152,0,0.3121,0.3158,0.3221,0.3298,0.335,0.3414,0.3482,0.3508,0.3607,0.3653,0.3725,0.3774,0.3873,0.3946,0.403,0.4084,0.4134,0.4146,0.4151,0.4128,0.4097,0.4113,0.4152,0.4145,0.4146,0.4147,0.4147,0.4147,0.3084,0.3118,0.3201,0.3269,0.3328,0.3389,0.343,0.3496,0.3558,0.3644,0.369,0.3761,0.3842,0.396,0.4012,0.4069,0.4086,0.4094,0.4096,0.4096,0.4089,0.4088,0.4085,0.4085,0.4085,0.4086,0.4086,0,0.3054,0.3112,0.3173,0.3265,0.3318,0.336,0.3437,0.3478,0.3539,0.3611,0.3672,0.3754,0.3826,0.3911,0.3988,0.4017,0.4042,0.4034,0.4032,0.4044,0.4069,0.4057,0.4012,0.4012,0.4012,0.4012,0.4012,0.4012,0.3045,0.3104,0.3151,0.324,0.3298,0.3367,0.3407,0.3463,0.3521,0.3609,0.3669,0.3723,0.38,0.3883,0.3951,0.3974,0.3999,0.3984,0.4014,0.4036,0.4042,0.4048,0.4037,0.3989,0.3989,0.3984,0.3984,0.3983]},{"header":{"parameterUnit":"m.s-1","parameterCategory":1,"la1":30.2991,"la2":30.254,"lo1":-89.0895,"lo2":-89.0444,"dy":0.0017,"dx":0.0017,"nx":28,"ny":28,"refTime":"2024-07-06T09:00:00:Z","depth":0,"parameterNumber":3,"parameterNumberName":"V-component_of_WINDS"},"data":[0,0,0,0,0,0,0,0,0,0,0,0,0,0,0,0,0,0,0,0,0,0,0,0,0,0,0,0,0,0,0,0,0,0,0,0,0,0,0,0,0,0,0,0,0,0,0,0,0,0,0,0,0,0,0,0,0,0,4.4019,4.4019,0,4.4008,4.4008,4.4008,4.3955,4.3954,4.3953,4.3951,4.3941,4.3941,4.3942,0,0,0,0,0,0,0,0,0,0,0,0,0,4.3994,4.3995,4.4019,4.4019,4.4019,4.4008,4.4008,4.4008,4.3955,4.3954,4.3952,4.3951,4.394,4.3941,4.3942,0,0,0,0,0,0,0,0,0,0,0,0,0,4.3997,4.3995,4.4019,4.3991,4.3989,4.4009,4.4008,4.4008,4.3956,4.3954,4.3952,4.395,4.394,4.3941,4.3942,4.3988,0,0,4.3947,4.3947,0,0,0,0,0,0,0,0,4.3997,4.3998,4.3996,4.3993,4.399,4.3981,4.3995,4.4002,4.3956,4.3968,4.3951,4.3949,4.3956,4.3956,4.3958,4.3988,4.3987,4.3947,4.3947,4.3948,4.3948,0,0,0,0,0,0,0,4.3996,4.3998,4.4015,4.3996,4.3992,4.3979,4.3978,4.3996,4.3973,4.3967,4.3963,4.3963,4.3954,4.3956,4.3957,4.3987,4.3947,4.3948,4.3949,4.3949,4.4055,4.4057,0,0,0,0,0,0,4.4,4.3998,4.4015,4.4015,4.3989,4.3981,4.3979,4.3986,4.3972,4.3968,4.3964,4.396,4.3955,4.3955,4.3956,4.4009,4.3948,4.3949,4.395,4.4053,4.4056,4.4058,0,0,0,0,0,0,4.4,4.4002,4.4016,4.4005,4.4006,4.3984,4.3992,4.3987,4.3989,4.397,4.3966,4.3971,4.3954,4.3955,4.3981,4.4008,4.395,4.3951,4.4051,4.4054,4.4057,4.4116,0,0,0,0,0,0,4.3999,4.4002,4.4019,4.4006,4.4007,4.404,4.3993,4.3988,4.3992,4.3986,4.3976,4.3972,4.3952,4.3979,4.3982,4.4009,4.3952,4.4048,4.4052,4.4056,4.4111,4.4121,4.4128,0,0,0,0,0,4.3999,4.4036,4.4021,4.4023,4.4028,4.4042,4.4042,4.4019,4.3994,4.4011,4.3999,4.3972,4.4005,4.3982,4.3985,4.4013,4.4046,4.4051,4.4055,4.4108,4.4119,4.4128,0,0,0,0,0,0,4.4053,4.4034,4.4016,4.4051,4.4049,4.4033,4.4054,4.4032,4.4036,4.4031,4.4002,4.4,4.4031,4.4024,4.4,4.4057,4.4021,4.4026,4.406,4.407,4.4079,4.4079,4.3953,0,0,0,0,0,4.407,4.4083,4.4065,4.4097,4.4097,4.4076,4.4081,4.4064,4.406,4.4059,4.4048,4.4046,4.4056,4.4063,4.407,4.411,4.4107,4.4131,4.4139,4.4147,4.4151,4.4173,4.4183,4.4073,4.4073,4.4073,0,0,4.4103,4.4094,4.4104,4.4108,4.4104,4.4119,4.4075,4.4093,4.4103,4.4061,4.4086,4.4078,4.4074,4.4107,4.4121,4.4103,4.4181,4.4152,4.4158,4.4159,4.4178,4.4189,4.4198,4.4076,4.4075,4.4075,0,0,4.4171,4.4166,4.4192,4.4189,4.4184,4.417,4.4176,4.4164,4.4158,4.4182,4.4151,4.4163,4.4181,4.4179,4.418,4.4249,4.4225,4.4252,4.4297,4.4318,4.4326,4.4334,4.4359,4.4368,4.4257,4.4257,4.4258,0,4.4213,4.4234,4.4208,4.4228,4.4231,4.4194,4.4221,4.4219,4.4217,4.422,4.4199,4.4221,4.4215,4.4248,4.4265,4.4267,4.4274,4.4253,4.4327,4.4335,4.4341,4.4365,4.4374,4.4261,4.426,4.426,4.426,0,4.4286,4.4301,4.4323,4.4322,4.4327,4.435,4.4329,4.4337,4.432,4.4308,4.4333,4.4325,4.4331,4.4337,4.432,4.4368,4.4357,4.4332,4.4296,4.4356,4.4377,4.4386,4.4266,4.4265,4.4264,4.4263,0,0,4.4387,4.4373,4.4381,4.4381,4.4373,4.4384,4.4406,4.4412,4.442,4.442,4.4437,4.4453,4.4431,4.4432,4.4415,4.4433,4.4489,4.4406,4.4406,4.4422,4.4542,4.456,4.4571,4.4473,4.4474,4.4475,4.4542,0,4.4452,4.4489,4.4467,4.4506,4.452,4.4486,4.4505,4.4502,4.4492,4.4503,4.4491,4.4503,4.4472,4.4473,4.449,4.4478,4.4512,4.4473,4.4489,4.449,4.4491,4.4582,4.4601,4.4665,4.455,4.4552,4.4553,0,4.4533,4.4537,4.4578,4.4568,4.4573,4.4591,4.4595,4.4605,4.4602,4.4593,4.4596,4.4573,4.4594,4.4559,4.4587,4.4561,4.4567,4.4562,4.4564,4.4564,4.4525,4.4585,4.4684,4.4694,4.4566,4.4565,4.4564,0,4.4603,4.4619,4.4646,4.4646,4.4635,4.4649,4.4645,4.4639,4.4645,4.4648,4.4652,4.4658,4.4661,4.4666,4.4647,4.4622,4.4678,4.4641,4.4672,4.4672,4.4685,4.4684,4.4786,4.4688,4.4688,4.4688,4.4688,0,4.4678,4.4705,4.4677,4.4694,4.4722,4.4698,4.4727,4.4719,4.4715,4.473,4.4701,4.4715,4.4688,4.47,4.4684,4.4711,4.4712,4.4706,4.4702,4.4709,4.471,4.4712,4.4707,4.4691,4.469,4.469,4.4689,0,4.4761,4.4744,4.4771,4.4759,4.4756,4.4778,4.4768,4.4783,4.4771,4.479,4.4793,4.4774,4.4786,4.4767,4.4777,4.4767,4.4804,4.4793,4.4805,4.4802,4.4834,4.4831,4.4941,4.4954,4.4848,4.4849,4.485,0,4.481,4.483,4.482,4.4828,4.4826,4.4839,4.4844,4.4821,4.4828,4.4826,4.4841,4.4851,4.4858,4.4879,4.4867,4.4875,4.4864,4.4901,4.4864,4.4871,4.4864,4.4863,4.4865,4.4909,4.491,4.4911,4.4912,0,4.4899,4.489,4.4899,4.4905,4.4913,4.4916,4.4918,4.4926,4.4901,4.4911,4.4923,4.4928,4.4939,4.495,4.4954,4.495,4.4928,4.4924,4.4932,4.4939,4.4945,4.4943,4.4826,4.4921,4.4921,4.492,4.4919,4.4919,4.4966,4.4983,4.4979,4.499,4.4989,4.4991,4.5005,4.4995,4.5005,4.5012,4.4998,4.5014,4.5011,4.5015,4.5014,4.5026,4.501,4.5021,4.5023,4.5027,4.5032,4.4944,4.5027,4.5027,4.5026,4.5026,4.5026,0,4.5054,4.505,4.5061,4.5064,4.5073,4.5051,4.5052,4.5061,4.5076,4.5075,4.5082,4.5097,4.5108,4.5096,4.5104,4.5117,4.5106,4.512,4.5118,4.5118,4.5046,4.5039,4.5128,4.5128,4.5128,4.5128,4.5128,4.5128,4.5101,4.5127,4.5117,4.5143,4.5139,4.5155,4.5157,4.516,4.5159,4.5177,4.5185,4.5178,4.5173,4.5181,4.5189,4.5186,4.519,4.5207,4.52,4.5133,4.5123,4.5113,4.5106,4.5209,4.5209,4.5271,4.5272,4.5272]}]]